Showing default

OT-FOREST-17 TELPERION, 68988

Orbit data source: Space-Track

OT-FOREST-17 TELPERION, 68988 is a German payload satellite in SSO that was launched on Sun, 03 May 2026 UTC via an FALCON 9 launch vehicle from the Air Force Western Test Range (AFWTR). Payload-class satellites include a variety of spacecraft equipped with specific instruments for various scientific and technological missions. These include communications satellites like Starlink; space stations such as the ISS; scientific satellites like the Hubble; Earth observation satellites from companies like Planet Labs, Umbra, and HawkEye 360; GPS; miniature CubeSats for education and research; and military/defense satellites.

Loading next visibility...
Identifier
68988, 2026-100J
Orbit
SSO
Country
Flag of DEDE / GER
Related business
Manufacturer
OroraTech
Mission
Operational Commercial Imaging
Bus & Motor
CUBESAT 8U, Unknown motor
Mass
~15 kg wet, ~15 kg dry
Launch date (UTC)
2026-05-03 (5 months ago)
Launch vehicle
FALCON 9
Launch site
Air Force Western Test Range (AFWTR)
Object type
Payload
Rocket body
Debris
Shape & HBR
Box, 0.2 m
Radar Cross Section
0.100 m², Medium (>0.1 m² and < 1m²)

Expand to show TLE details & history
Last TLE update: 7 hours ago

TLE from 7 hours ago
0 OT-FOREST-17 TELPERION
1 68988U 26100J   26266.15460712  .00000641  00000-0  67185-4 0  9998
2 68988  97.7205 161.6446 0005700 160.6923 199.4513 14.92923308 21307
Epoch: 2026-09-23T03:42Z
TLE epoch observation values (Epoch: 2026-09-23T03:42:38.055Z)
Latitude
-0.00005°
Longitude
103.97624°
Altitude
595.616 km
Speed
7.56 km/s
True Right ascension
10h 46m 34s
True Declination
0° 00' 00"
Sunlit
Object was in daylight at epoch
Visualization orbit readout
Latitude
Unknown
Longitude
Unknown
Altitude
Unknown
Speed
Unknown
Apparent Right ascension
Unknown
Apparent Declination
Unknown
Sunlit
N/A
Visualization observer readout
Local Sidereal Time
04:07:52
Azimuth
Unknown
Elevation
Unknown
Doppler factor
Unknown
Orbital elements
Apogee altitude
589.811 km
Perigee altitude
581.872 km
Semi-major axis
6,963.979 km
Eccentricity
0.00057
Inclination
97.7205°
RAAN
161.6446°
Arg. of periapsis
160.6923°
True anomaly
199.42956°
Mean anomaly
199.4513°
Eccentric anomaly
199.44043°
Mean motion
3.73471 °/min
Orbital period
96.39 mins
BSTAR
0.000067185
Loading maneuver chart data...
Computing Atmospheric mass density...
Loading historical data...
Loading historical data...
Loading historical data...
Loading historical data...
Loading historical data...
Loading historical data...
Loading historical data...

Documentation

Showing up to 5 results
|